• In Hungary
  • List of Countries
  • For 7 days
  • Water Temperature
  • Satellite Maps
  • Weather Map
  • News
  • Weather Widgets
  • user-avatar
    Login

    Hourly Weather Mislata

    Today, 13 November, Tuesday

    Time Temperature Precipitation Wind Pressure Humidity
    00:00 +16°C° 0 mm 3 mps 761 mmHg 91%
    01:00 +16°C° 0 mm 3 mps 761 mmHg 90%
    02:00 +16°C° 0 mm 3 mps 761 mmHg 90%
    03:00 +16°C° 0 mm 3 mps 761 mmHg 90%
    04:00 +16°C° 0 mm 3 mps 761 mmHg 89%
    05:00 +16°C° 0 mm 3 mps 762 mmHg 87%
    06:00 +15°C° 0 mm 4 mps 762 mmHg 86%
    07:00 +17°C° 0 mm 4 mps 763 mmHg 82%
    08:00 +18°C° 0 mm 4 mps 763 mmHg 77%
    09:00 +19°C° 0 mm 5 mps 763 mmHg 73%
    10:00 +20°C° 0 mm 5 mps 763 mmHg 71%
    11:00 +20°C° 0 mm 6 mps 764 mmHg 70%
    12:00 +21°C° 0 mm 6 mps 764 mmHg 68%
    13:00 +21°C° 0 mm 6 mps 764 mmHg 72%
    14:00 +20°C° 0 mm 6 mps 764 mmHg 76%
    15:00 +20°C° 0 mm 6 mps 763 mmHg 80%
    16:00 +19°C° 0 mm 6 mps 764 mmHg 84%
    17:00 +19°C° 0 mm 5 mps 764 mmHg 88%
    18:00 +17°C° 0 mm 5 mps 764 mmHg 92%
    19:00 +17°C° 0 mm 5 mps 764 mmHg 92%
    20:00 +16°C° 0 mm 5 mps 765 mmHg 93%
    21:00 +16°C° 0 mm 5 mps 765 mmHg 93%
    22:00 +17°C° 0 mm 4 mps 765 mmHg 93%
    23:00 +17°C° 0 mm 4 mps 765 mmHg 92%

    Tomorrow, 14 November, Wednesday

    Time Temperature Precipitation Wind Pressure Humidity
    00:00 +17°C° 0 mm 4 mps 765 mmHg 91%
    01:00 +17°C° 0.1 mm 4 mps 764 mmHg 91%
    02:00 +17°C° 0.1 mm 4 mps 764 mmHg 91%
    03:00 +17°C° 0.1 mm 4 mps 764 mmHg 91%
    04:00 +17°C° 0.1 mm 4 mps 764 mmHg 91%
    05:00 +17°C° 0.1 mm 3 mps 764 mmHg 91%
    06:00 +17°C° 0.1 mm 3 mps 764 mmHg 91%
    07:00 +17°C° 0 mm 4 mps 764 mmHg 89%
    08:00 +18°C° 0 mm 4 mps 764 mmHg 86%
    09:00 +18°C° 0 mm 4 mps 764 mmHg 84%
    10:00 +19°C° 0 mm 4 mps 763 mmHg 82%
    11:00 +19°C° 0 mm 4 mps 763 mmHg 81%
    12:00 +20°C° 0 mm 5 mps 763 mmHg 79%
    13:00 +20°C° 0.2 mm 5 mps 762 mmHg 79%
    14:00 +20°C° 0.2 mm 5 mps 762 mmHg 79%
    15:00 +20°C° 0.2 mm 5 mps 761 mmHg 79%
    16:00 +19°C° 0.3 mm 5 mps 761 mmHg 82%
    17:00 +19°C° 0.3 mm 4 mps 761 mmHg 86%
    18:00 +18°C° 0.3 mm 4 mps 761 mmHg 90%
    19:00 +18°C° 0.4 mm 4 mps 761 mmHg 90%
    20:00 +17°C° 0.4 mm 4 mps 761 mmHg 91%
    21:00 +17°C° 0.4 mm 4 mps 761 mmHg 91%
    22:00 +17°C° 0.4 mm 4 mps 761 mmHg 91%
    23:00 +17°C° 0.4 mm 4 mps 761 mmHg 91%

    Day after tomorrow, 15 November, Thursday

    Time Temperature Precipitation Wind Pressure Humidity
    00:00 +15°C° 0.4 mm 4 mps 761 mmHg 91%
    01:00 +15°C° 0.1 mm 4 mps 760 mmHg 91%
    02:00 +15°C° 0.1 mm 4 mps 760 mmHg 91%
    03:00 +15°C° 0.1 mm 4 mps 760 mmHg 91%
    04:00 +15°C° 0.2 mm 4 mps 760 mmHg 90%
    05:00 +15°C° 0.2 mm 4 mps 759 mmHg 90%
    06:00 +15°C° 0.2 mm 4 mps 759 mmHg 89%
    07:00 +17°C° 0.2 mm 4 mps 760 mmHg 86%
    08:00 +17°C° 0.2 mm 4 mps 760 mmHg 83%
    09:00 +18°C° 0.2 mm 4 mps 760 mmHg 80%
    10:00 +19°C° 0.3 mm 4 mps 760 mmHg 78%
    11:00 +19°C° 0.3 mm 4 mps 760 mmHg 76%
    12:00 +20°C° 0.3 mm 4 mps 760 mmHg 74%
    13:00 +20°C° 0.1 mm 5 mps 760 mmHg 73%
    14:00 +20°C° 0.1 mm 5 mps 759 mmHg 73%
    15:00 +20°C° 0.1 mm 5 mps 759 mmHg 73%
    16:00 +19°C° 0.3 mm 5 mps 759 mmHg 79%
    17:00 +17°C° 0.3 mm 5 mps 760 mmHg 84%
    18:00 +17°C° 0.3 mm 4 mps 760 mmHg 90%
    19:00 +17°C° 0.2 mm 4 mps 760 mmHg 90%
    20:00 +17°C° 0.2 mm 4 mps 761 mmHg 91%
    21:00 +15°C° 0.2 mm 4 mps 761 mmHg 91%
    22:00 +15°C° 0.3 mm 4 mps 761 mmHg 90%
    23:00 +15°C° 0.3 mm 4 mps 761 mmHg 89%

    16 November, Friday

    Time Temperature Precipitation Wind Pressure Humidity
    00:00 +15°C° 0.3 mm 4 mps 761 mmHg 89%
    01:00 +15°C° 0.2 mm 4 mps 761 mmHg 88%
    02:00 +15°C° 0.2 mm 4 mps 761 mmHg 88%
    03:00 +15°C° 0.2 mm 4 mps 761 mmHg 88%
    04:00 +15°C° 0.2 mm 4 mps 761 mmHg 89%
    05:00 +15°C° 0.2 mm 4 mps 761 mmHg 90%
    06:00 +15°C° 0.2 mm 4 mps 761 mmHg 91%
    07:00 +15°C° 0.3 mm 5 mps 761 mmHg 91%
    08:00 +16°C° 0.3 mm 5 mps 761 mmHg 91%
    09:00 +17°C° 0.3 mm 5 mps 761 mmHg 91%
    10:00 +17°C° 0.4 mm 5 mps 761 mmHg 89%
    11:00 +17°C° 0.4 mm 5 mps 761 mmHg 86%
    12:00 +19°C° 0.4 mm 5 mps 761 mmHg 83%
    13:00 +19°C° 0.5 mm 5 mps 760 mmHg 82%
    14:00 +19°C° 0.5 mm 5 mps 760 mmHg 82%
    15:00 +19°C° 0.5 mm 6 mps 760 mmHg 81%
    16:00 +17°C° 0.7 mm 6 mps 760 mmHg 85%
    17:00 +17°C° 0.7 mm 6 mps 760 mmHg 88%
    18:00 +16°C° 0.7 mm 6 mps 760 mmHg 92%
    19:00 +16°C° 0.8 mm 6 mps 761 mmHg 92%
    20:00 +16°C° 0.8 mm 6 mps 761 mmHg 92%
    21:00 +16°C° 0.8 mm 6 mps 761 mmHg 92%
    22:00 +16°C° 0.5 mm 6 mps 761 mmHg 92%
    23:00 +16°C° 0.5 mm 6 mps 761 mmHg 91%

    17 November, Saturday

    Time Temperature Precipitation Wind Pressure Humidity
    00:00 +16°C° 0.5 mm 6 mps 761 mmHg 91%
    01:00 +15°C° 0.4 mm 6 mps 761 mmHg 91%
    02:00 +15°C° 0.4 mm 6 mps 760 mmHg 90%
    03:00 +15°C° 0.4 mm 6 mps 760 mmHg 90%
    04:00 +15°C° 0.3 mm 6 mps 760 mmHg 90%
    05:00 +14°C° 0.3 mm 6 mps 760 mmHg 89%
    06:00 +14°C° 0.3 mm 6 mps 760 mmHg 88%
    07:00 +14°C° 0.2 mm 6 mps 760 mmHg 87%
    08:00 +15°C° 0.2 mm 6 mps 760 mmHg 85%
    09:00 +15°C° 0.2 mm 6 mps 760 mmHg 83%
    10:00 +15°C° 0.2 mm 6 mps 760 mmHg 84%
    11:00 +16°C° 0.2 mm 7 mps 760 mmHg 84%
    12:00 +16°C° 0.2 mm 7 mps 759 mmHg 84%
    13:00 +16°C° 0.2 mm 6 mps 759 mmHg 84%
    14:00 +16°C° 0.2 mm 6 mps 759 mmHg 84%
    15:00 +16°C° 0.2 mm 6 mps 759 mmHg 83%
    16:00 +16°C° 0.4 mm 6 mps 759 mmHg 85%
    17:00 +15°C° 0.4 mm 6 mps 759 mmHg 87%
    18:00 +15°C° 0.4 mm 6 mps 759 mmHg 89%
    19:00 +15°C° 0.4 mm 6 mps 759 mmHg 90%
    20:00 +15°C° 0.4 mm 6 mps 759 mmHg 90%
    21:00 +15°C° 0.4 mm 6 mps 759 mmHg 90%
    22:00 +14°C° 0.5 mm 6 mps 759 mmHg 90%
    23:00 +14°C° 0.5 mm 6 mps 759 mmHg 90%

    18 November, Sunday

    Time Temperature Precipitation Wind Pressure Humidity
    00:00 +14°C° 0.5 mm 6 mps 758 mmHg 90%
    01:00 +14°C° 0.4 mm 5 mps 758 mmHg 89%
    02:00 +13°C° 0.4 mm 5 mps 758 mmHg 89%
    03:00 +13°C° 0.4 mm 5 mps 757 mmHg 89%
    04:00 +13°C° 0.4 mm 5 mps 757 mmHg 89%
    05:00 +13°C° 0.4 mm 5 mps 757 mmHg 90%
    06:00 +13°C° 0.4 mm 5 mps 757 mmHg 91%
    07:00 +13°C° 0.4 mm 4 mps 757 mmHg 90%
    08:00 +14°C° 0.4 mm 4 mps 757 mmHg 90%
    09:00 +14°C° 0.4 mm 4 mps 757 mmHg 90%
    10:00 +14°C° 0.4 mm 4 mps 757 mmHg 89%
    11:00 +15°C° 0.4 mm 4 mps 756 mmHg 88%
    12:00 +15°C° 0.4 mm 4 mps 756 mmHg 87%
    13:00 +15°C° 0.4 mm 4 mps 756 mmHg 86%
    14:00 +15°C° 0.4 mm 5 mps 755 mmHg 86%
    15:00 +15°C° 0.4 mm 5 mps 755 mmHg 86%
    16:00 +14°C° 0.4 mm 5 mps 755 mmHg 88%
    17:00 +14°C° 0.4 mm 5 mps 755 mmHg 90%
    18:00 +14°C° 0.4 mm 5 mps 755 mmHg 91%
    19:00 +14°C° 0.5 mm 5 mps 755 mmHg 92%
    20:00 +14°C° 0.5 mm 5 mps 755 mmHg 92%
    21:00 +13°C° 0.5 mm 5 mps 755 mmHg 92%
    22:00 +13°C° 0.6 mm 5 mps 755 mmHg 92%
    23:00 +13°C° 0.6 mm 5 mps 754 mmHg 92%
    Show more